QPF
0.00 0.00 0.00 0.00 0.00 0.00 0.00 0.00 0.00 0.01 0.01 0.00 0.01 0.01 0.01 0.01 0.01 0.01 0.01 0.01 0.01 0.00 0.00 0.00 0.00 0.00 0.00 0.01 0.01 0.01 0.01 0.01 0.01 0.01 0.01 0.01 0.02 0.01 0.01 0.00 0.00 0.00 0.01
0.00 0.00 0.00 0.00 0.00 0.00 0.00 0.00 0.00 0.00 0.00 0.00 0.01 0.01 0.00 0.01 0.01 0.01 0.00 0.01 0.00 0.00 0.00 0.00 0.00 0.00 0.00 0.00 0.01 0.01 0.01 0.01 0.01 0.00 0.00 0.00 0.01 0.02 0.01 0.01 0.01 0.01 0.01
0.00 0.00 0.00 0.00 0.00 0.00 0.00 0.00 0.00 0.00 0.00 0.00 0.00 0.00 0.00 0.00 0.00 0.00 0.00 0.00 0.00 0.00 0.00 0.00 0.00 0.00 0.00 0.00 0.00 0.01 0.01 0.01 0.00 0.00 0.00 0.00 0.01 0.02 0.01 0.01 0.01 0.01 0.01
0.00 0.00 0.00 0.00 0.00 0.00 0.00 0.00 0.00 0.00 0.00 0.00 0.00 0.00 0.00 0.00 0.00 0.00 0.00 0.00 0.00 0.00 0.00 0.00 0.00 0.00 0.00 0.00 0.00 0.00 0.00 0.00 0.00 0.00 0.00 0.00 0.00 0.01 0.01 0.01 0.01 0.01 0.01
0.00 0.00 0.00 0.00 0.00 0.00 0.00 0.00 0.00 0.00 0.00 0.00 0.00 0.00 0.00 0.00 0.00 0.00 0.00 0.00 0.00 0.00 0.00 0.00 0.00 0.00 0.00 0.00 0.00 0.00 0.00 0.00 0.00 0.00 0.00 0.00 0.00 0.01 0.01 0.01 0.01 0.01 0.01
0.00 0.00 0.00 0.00 0.00 0.00 0.00 0.00 0.00 0.00 0.00 0.00 0.00 0.00 0.00 0.00 0.00 0.00 0.00 0.00 0.00 0.00 0.00 0.00 0.00 0.00 0.00 0.00 0.00 0.00 0.00 0.00 0.00 0.00 0.00 0.00 0.00 0.01 0.01 0.01 0.01 0.01 0.01
0.00 0.00 0.00 0.00 0.00 0.00 0.00 0.00 0.00 0.00 0.00 0.00 0.00 0.00 0.00 0.00 0.00 0.00 0.00 0.00 0.00 0.00 0.00 0.00 0.00 0.00 0.00 0.00 0.00 0.00 0.00 0.00 0.00 0.00 0.00 0.00 0.00 0.01 0.01 0.01 0.01 0.00 0.00
0.00 0.00 0.00 0.00 0.00 0.00 0.00 0.00 0.00 0.00 0.00 0.00 0.00 0.00 0.00 0.00 0.00 0.00 0.00 0.00 0.00 0.00 0.00 0.00 0.00 0.00 0.00 0.00 0.00 0.00 0.00 0.00 0.00 0.00 0.00 0.00 0.00 0.00 0.00 0.00 0.00 0.00 0.00
0.00 0.00 0.00 0.00 0.00 0.00 0.00 0.00 0.00 0.00 0.00 0.00 0.00 0.00 0.00 0.00 0.00 0.00 0.00 0.00 0.00 0.00 0.00 0.00 0.00 0.00 0.00 0.00 0.00 0.00 0.00 0.00 0.00 0.00 0.00 0.00 0.00 0.00 0.00 0.00 0.00 0.00 0.00
0.00 0.00 0.00 0.00 0.00 0.00 0.00 0.00 0.00 0.00 0.00 0.00 0.00 0.00 0.00 0.00 0.00 0.00 0.00 0.00 0.00 0.00 0.00 0.00 0.00 0.00 0.00 0.00 0.00 0.00 0.00 0.00 0.00 0.00 0.00 0.00 0.00 0.00 0.00 0.00 0.00 0.00 0.00
0.00 0.00 0.00 0.00 0.00 0.00 0.00 0.00 0.00 0.00 0.00 0.00 0.00 0.00 0.00 0.00 0.00 0.00 0.00 0.00 0.00 0.00 0.00 0.00 0.00 0.00 0.00 0.00 0.00 0.00 0.00 0.00 0.00 0.00 0.00 0.00 0.00 0.00 0.00 0.00 0.00 0.00 0.00
0.00 0.00 0.00 0.00 0.00 0.00 0.00 0.00 0.00 0.00 0.00 0.00 0.00 0.00 0.00 0.00 0.00 0.00 0.00 0.00 0.00 0.00 0.00 0.00 0.00 0.00 0.00 0.00 0.00 0.00 0.00 0.00 0.00 0.00 0.00 0.00 0.00 0.00 0.00 0.00 0.00 0.00 0.00
0.00 0.00 0.00 0.00 0.00 0.00 0.00 0.00 0.00 0.00 0.00 0.00 0.00 0.00 0.00 0.00 0.00 0.00 0.00 0.00 0.00 0.00 0.00 0.00 0.00 0.00 0.00 0.00 0.00 0.00 0.00 0.00 0.00 0.00 0.00 0.00 0.00 0.00 0.00 0.00 0.00 0.00 0.00
0.00 0.00 0.00 0.00 0.00 0.00 0.00 0.00 0.00 0.00 0.00 0.00 0.00 0.00 0.00 0.00 0.00 0.00 0.00 0.00 0.00 0.00 0.00 0.00 0.00 0.00 0.00 0.00 0.00 0.00 0.00 0.00 0.00 0.00 0.00 0.00 0.00 0.00 0.00 0.00 0.00 0.00 0.00
0.00 0.00 0.00 0.00 0.00 0.00 0.00 0.00 0.00 0.00 0.00 0.00 0.00 0.00 0.00 0.00 0.00 0.00 0.00 0.00 0.00 0.00 0.00 0.00 0.00 0.00 0.00 0.00 0.00 0.00 0.00 0.00 0.00 0.00 0.00 0.00 0.00 0.00 0.00 0.00 0.00 0.00 0.00
0.00 0.00 0.00 0.00 0.00 0.00 0.00 0.00 0.00 0.00 0.00 0.00 0.00 0.00 0.00 0.00 0.00 0.00 0.00 0.00 0.00 0.00 0.00 0.00 0.00 0.00 0.00 0.00 0.00 0.00 0.00 0.00 0.00 0.00 0.00 0.00 0.00 0.00 0.00 0.00 0.00 0.00 0.00
0.00 0.00 0.00 0.00 0.00 0.00 0.00 0.00 0.00 0.00 0.00 0.00 0.00 0.00 0.00 0.00 0.00 0.00 0.00 0.00 0.00 0.00 0.00 0.00 0.00 0.00 0.00 0.00 0.00 0.00 0.00 0.00 0.00 0.00 0.00 0.00 0.00 0.00 0.00 0.00 0.00 0.00 0.00
0.00 0.00 0.00 0.00 0.00 0.00 0.00 0.00 0.00 0.00 0.00 0.00 0.00 0.00 0.00 0.00 0.00 0.00 0.00 0.00 0.00 0.00 0.00 0.00 0.00 0.00 0.00 0.00 0.00 0.00 0.00 0.00 0.00 0.00 0.00 0.00 0.00 0.00 0.00 0.00 0.00 0.00 0.00
0.00 0.00 0.00 0.00 0.00 0.00 0.00 0.00 0.00 0.00 0.00 0.00 0.00 0.00 0.00 0.00 0.00 0.00 0.00 0.00 0.00 0.00 0.00 0.00 0.00 0.00 0.00 0.00 0.00 0.00 0.00 0.00 0.00 0.00 0.00 0.00 0.00 0.00 0.00 0.00 0.00 0.00 0.00
0.00 0.00 0.00 0.00 0.00 0.00 0.00 0.00 0.00 0.00 0.00 0.00 0.00 0.00 0.00 0.00 0.00 0.00 0.00 0.00 0.00 0.00 0.00 0.00 0.00 0.00 0.00 0.00 0.00 0.00 0.00 0.00 0.00 0.00 0.00 0.00 0.00 0.00 0.00 0.00 0.00 0.00 0.00
0.00 0.00 0.00 0.00 0.00 0.00 0.00 0.00 0.00 0.00 0.00 0.00 0.00 0.00 0.00 0.00 0.00 0.00 0.00 0.00 0.00 0.00 0.00 0.00 0.00 0.00 0.00 0.00 0.00 0.00 0.00 0.00 0.00 0.00 0.00 0.00 0.00 0.00 0.00 0.00 0.00 0.00 0.00
0.00 0.00 0.00 0.00 0.00 0.00 0.00 0.00 0.00 0.00 0.00 0.00 0.00 0.00 0.00 0.00 0.00 0.00 0.00 0.00 0.00 0.00 0.00 0.00 0.00 0.00 0.00 0.00 0.00 0.00 0.00 0.00 0.00 0.00 0.00 0.00 0.00 0.00 0.00 0.00 0.00 0.00 0.00
0.00 0.00 0.00 0.00 0.00 0.00 0.00 0.00 0.00 0.00 0.00 0.00 0.00 0.00 0.00 0.00 0.00 0.00 0.00 0.00 0.00 0.00 0.00 0.00 0.00 0.00 0.00 0.00 0.00 0.00 0.00 0.00 0.00 0.00 0.00 0.00 0.00 0.00 0.00 0.00 0.00 0.00 0.00
0.00 0.00 0.00 0.00 0.00 0.00 0.00 0.00 0.00 0.00 0.00 0.00 0.00 0.00 0.00 0.00 0.00 0.00 0.00 0.00 0.00 0.00 0.00 0.00 0.00 0.00 0.00 0.00 0.00 0.00 0.00 0.00 0.00 0.00 0.00 0.00 0.00 0.00 0.00 0.00 0.00 0.00 0.00
0.00 0.00 0.00 0.00 0.00 0.00 0.00 0.00 0.00 0.00 0.00 0.00 0.00 0.00 0.00 0.00 0.00 0.00 0.00 0.00 0.00 0.00 0.00 0.00 0.00 0.00 0.00 0.00 0.00 0.00 0.00 0.00 0.00 0.00 0.00 0.00 0.00 0.00 0.00 0.00 0.00 0.00 0.00
0.00 0.00 0.00 0.00 0.00 0.00 0.00 0.00 0.00 0.00 0.00 0.00 0.00 0.00 0.00 0.00 0.00 0.00 0.00 0.00 0.00 0.00 0.00 0.00 0.00 0.00 0.00 0.00 0.00 0.00 0.00 0.00 0.00 0.00 0.00 0.00 0.00 0.00 0.00 0.00 0.00 0.00 0.00
MSLP
1019.51 1019.82 1020.22 1020.67 1021.12 1021.53 1021.87 1022.12 1022.28 1022.38 1022.43 1022.47 1022.53 1022.63 1022.75 1022.90 1023.04 1023.16 1023.24 1023.28 1023.27 1023.23 1023.18 1023.14 1023.10 1023.07 1023.06 1023.04 1023.00 1022.95 1022.86 1022.74 1022.60 1022.45 1022.29 1022.13 1021.99 1021.86 1021.75 1021.64 1021.54 1021.43 1021.32
1019.20 1019.52 1019.94 1020.43 1020.94 1021.43 1021.85 1022.18 1022.40 1022.54 1022.62 1022.68 1022.74 1022.84 1022.97 1023.14 1023.31 1023.46 1023.58 1023.66 1023.69 1023.69 1023.67 1023.66 1023.66 1023.66 1023.67 1023.67 1023.64 1023.57 1023.47 1023.32 1023.15 1022.97 1022.79 1022.62 1022.47 1022.35 1022.24 1022.14 1022.04 1021.93 1021.81
1018.96 1019.28 1019.71 1020.22 1020.78 1021.32 1021.81 1022.21 1022.50 1022.69 1022.81 1022.89 1022.98 1023.09 1023.24 1023.41 1023.60 1023.77 1023.91 1024.01 1024.06 1024.09 1024.10 1024.11 1024.13 1024.16 1024.19 1024.20 1024.18 1024.11 1023.99 1023.83 1023.64 1023.44 1023.25 1023.08 1022.94 1022.83 1022.73 1022.64 1022.54 1022.42 1022.29
1018.84 1019.15 1019.57 1020.09 1020.66 1021.24 1021.77 1022.22 1022.56 1022.81 1022.97 1023.10 1023.21 1023.35 1023.51 1023.70 1023.89 1024.07 1024.21 1024.31 1024.37 1024.41 1024.44 1024.47 1024.52 1024.57 1024.62 1024.65 1024.63 1024.56 1024.44 1024.28 1024.08 1023.88 1023.70 1023.54 1023.41 1023.31 1023.22 1023.13 1023.03 1022.91 1022.76
1018.83 1019.14 1019.54 1020.05 1020.62 1021.20 1021.74 1022.22 1022.59 1022.88 1023.09 1023.25 1023.41 1023.57 1023.76 1023.95 1024.15 1024.32 1024.46 1024.56 1024.61 1024.65 1024.69 1024.74 1024.81 1024.89 1024.96 1025.01 1025.01 1024.95 1024.84 1024.68 1024.50 1024.31 1024.14 1024.00 1023.89 1023.79 1023.71 1023.62 1023.52 1023.39 1023.24
1018.93 1019.22 1019.61 1020.08 1020.62 1021.17 1021.71 1022.18 1022.57 1022.89 1023.13 1023.34 1023.53 1023.72 1023.93 1024.14 1024.34 1024.52 1024.65 1024.74 1024.80 1024.84 1024.89 1024.96 1025.05 1025.16 1025.25 1025.32 1025.35 1025.31 1025.21 1025.07 1024.91 1024.74 1024.59 1024.46 1024.36 1024.28 1024.20 1024.10 1023.99 1023.86 1023.70
1019.09 1019.36 1019.72 1020.15 1020.64 1021.16 1021.65 1022.11 1022.50 1022.82 1023.09 1023.33 1023.56 1023.79 1024.02 1024.25 1024.46 1024.64 1024.77 1024.86 1024.93 1024.99 1025.06 1025.15 1025.26 1025.39 1025.52 1025.61 1025.65 1025.63 1025.56 1025.44 1025.30 1025.15 1025.02 1024.91 1024.82 1024.73 1024.64 1024.54 1024.42 1024.28 1024.12
1019.24 1019.50 1019.83 1020.22 1020.66 1021.13 1021.58 1022.01 1022.38 1022.70 1022.98 1023.24 1023.50 1023.76 1024.03 1024.28 1024.51 1024.70 1024.84 1024.94 1025.03 1025.11 1025.20 1025.31 1025.45 1025.60 1025.75 1025.85 1025.91 1025.91 1025.86 1025.76 1025.64 1025.52 1025.40 1025.30 1025.21 1025.12 1025.02 1024.90 1024.76 1024.61 1024.45
1019.34 1019.59 1019.89 1020.25 1020.66 1021.08 1021.50 1021.89 1022.23 1022.55 1022.84 1023.11 1023.39 1023.68 1023.96 1024.24 1024.48 1024.69 1024.85 1024.98 1025.09 1025.19 1025.31 1025.45 1025.61 1025.77 1025.92 1026.04 1026.10 1026.11 1026.07 1025.99 1025.89 1025.79 1025.69 1025.60 1025.51 1025.40 1025.28 1025.13 1024.97 1024.81 1024.65
1019.33 1019.58 1019.88 1020.23 1020.62 1021.02 1021.40 1021.77 1022.10 1022.40 1022.69 1022.97 1023.26 1023.56 1023.86 1024.15 1024.42 1024.64 1024.82 1024.97 1025.10 1025.23 1025.37 1025.52 1025.69 1025.86 1026.00 1026.11 1026.18 1026.19 1026.15 1026.09 1026.01 1025.93 1025.84 1025.76 1025.66 1025.54 1025.39 1025.22 1025.03 1024.85 1024.68
1019.22 1019.48 1019.79 1020.15 1020.54 1020.93 1021.31 1021.67 1021.99 1022.28 1022.56 1022.84 1023.14 1023.44 1023.75 1024.04 1024.31 1024.54 1024.74 1024.90 1025.05 1025.19 1025.34 1025.50 1025.66 1025.82 1025.95 1026.05 1026.10 1026.10 1026.07 1026.02 1025.96 1025.89 1025.83 1025.75 1025.65 1025.52 1025.35 1025.15 1024.93 1024.72 1024.54
1018.99 1019.28 1019.62 1020.01 1020.43 1020.84 1021.23 1021.58 1021.90 1022.19 1022.47 1022.75 1023.03 1023.33 1023.63 1023.91 1024.18 1024.40 1024.60 1024.76 1024.91 1025.05 1025.20 1025.35 1025.50 1025.64 1025.74 1025.81 1025.84 1025.84 1025.81 1025.76 1025.72 1025.68 1025.63 1025.57 1025.47 1025.33 1025.15 1024.92 1024.68 1024.44 1024.24
1018.70 1019.02 1019.40 1019.84 1020.29 1020.73 1021.14 1021.50 1021.83 1022.12 1022.39 1022.66 1022.94 1023.22 1023.50 1023.76 1024.00 1024.21 1024.39 1024.54 1024.68 1024.81 1024.94 1025.07 1025.19 1025.30 1025.37 1025.42 1025.42 1025.40 1025.36 1025.33 1025.30 1025.28 1025.26 1025.21 1025.13 1025.00 1024.81 1024.57 1024.30 1024.04 1023.81
1018.37 1018.73 1019.16 1019.64 1020.12 1020.60 1021.03 1021.41 1021.74 1022.03 1022.30 1022.56 1022.82 1023.08 1023.34 1023.58 1023.79 1023.97 1024.12 1024.24 1024.36 1024.46 1024.57 1024.67 1024.76 1024.83 1024.88 1024.89 1024.87 1024.83 1024.78 1024.75 1024.73 1024.72 1024.72 1024.70 1024.64 1024.52 1024.34 1024.10 1023.82 1023.53 1023.28
1018.08 1018.46 1018.92 1019.43 1019.95 1020.44 1020.89 1021.28 1021.61 1021.91 1022.17 1022.42 1022.67 1022.91 1023.13 1023.34 1023.52 1023.67 1023.79 1023.89 1023.97 1024.05 1024.12 1024.19 1024.26 1024.29 1024.30 1024.28 1024.23 1024.16 1024.10 1024.05 1024.03 1024.04 1024.05 1024.05 1024.02 1023.92 1023.76 1023.52 1023.25 1022.95 1022.68
1017.86 1018.26 1018.74 1019.25 1019.78 1020.27 1020.71 1021.10 1021.43 1021.71 1021.97 1022.21 1022.44 1022.67 1022.87 1023.06 1023.21 1023.33 1023.42 1023.49 1023.54 1023.60 1023.65 1023.69 1023.73 1023.73 1023.71 1023.65 1023.56 1023.46 1023.36 1023.29 1023.25 1023.24 1023.25 1023.27 1023.25 1023.19 1023.05 1022.85 1022.59 1022.31 1022.03
1017.77 1018.16 1018.62 1019.13 1019.63 1020.10 1020.52 1020.88 1021.20 1021.47 1021.71 1021.94 1022.16 1022.37 1022.56 1022.73 1022.86 1022.96 1023.03 1023.08 1023.12 1023.15 1023.19 1023.21 1023.23 1023.21 1023.16 1023.06 1022.93 1022.78 1022.63 1022.50 1022.41 1022.36 1022.35 1022.36 1022.36 1022.32 1022.23 1022.07 1021.85 1021.59 1021.32
1017.82 1018.18 1018.61 1019.07 1019.53 1019.96 1020.34 1020.67 1020.95 1021.20 1021.42 1021.64 1021.84 1022.04 1022.22 1022.37 1022.49 1022.58 1022.64 1022.68 1022.72 1022.74 1022.77 1022.79 1022.79 1022.75 1022.67 1022.53 1022.35 1022.14 1021.91 1021.71 1021.54 1021.43 1021.37 1021.35 1021.35 1021.33 1021.28 1021.17 1021.00 1020.79 1020.55
1018.02 1018.34 1018.71 1019.11 1019.51 1019.88 1020.21 1020.49 1020.74 1020.95 1021.15 1021.34 1021.53 1021.71 1021.87 1022.02 1022.13 1022.21 1022.27 1022.31 1022.35 1022.38 1022.40 1022.42 1022.41 1022.36 1022.25 1022.08 1021.84 1021.55 1021.25 1020.95 1020.68 1020.48 1020.35 1020.28 1020.25 1020.23 1020.21 1020.15 1020.04 1019.88 1019.69
1018.34 1018.60 1018.91 1019.25 1019.58 1019.89 1020.16 1020.39 1020.59 1020.77 1020.94 1021.10 1021.26 1021.41 1021.56 1021.68 1021.79 1021.87 1021.92 1021.97 1022.01 1022.04 1022.08 1022.10 1022.09 1022.03 1021.90 1021.68 1021.39 1021.03 1020.64 1020.23 1019.86 1019.55 1019.32 1019.17 1019.09 1019.06 1019.05 1019.03 1018.98 1018.88 1018.74
1018.74 1018.95 1019.20 1019.47 1019.74 1019.99 1020.20 1020.39 1020.54 1020.68 1020.80 1020.92 1021.05 1021.17 1021.28 1021.38 1021.47 1021.54 1021.59 1021.64 1021.68 1021.72 1021.76 1021.78 1021.77 1021.71 1021.56 1021.32 1020.98 1020.56 1020.08 1019.58 1019.10 1018.68 1018.34 1018.10 1017.95 1017.88 1017.86 1017.86 1017.85 1017.80 1017.71
1019.17 1019.33 1019.52 1019.74 1019.96 1020.16 1020.33 1020.47 1020.59 1020.68 1020.76 1020.83 1020.91 1020.98 1021.06 1021.12 1021.18 1021.23 1021.27 1021.30 1021.34 1021.38 1021.41 1021.44 1021.42 1021.35 1021.19 1020.94 1020.57 1020.11 1019.58 1019.00 1018.43 1017.90 1017.45 1017.11 1016.87 1016.74 1016.68 1016.67 1016.68 1016.67 1016.62
1019.58 1019.71 1019.86 1020.03 1020.21 1020.37 1020.51 1020.62 1020.70 1020.75 1020.78 1020.81 1020.83 1020.85 1020.87 1020.89 1020.91 1020.93 1020.94 1020.96 1020.97 1020.99 1021.01 1021.02 1021.00 1020.92 1020.76 1020.50 1020.13 1019.66 1019.10 1018.48 1017.84 1017.23 1016.70 1016.25 1015.92 1015.71 1015.59 1015.54 1015.53 1015.52 1015.50
1019.94 1020.04 1020.16 1020.30 1020.45 1020.59 1020.71 1020.79 1020.84 1020.86 1020.85 1020.82 1020.78 1020.75 1020.71 1020.68 1020.66 1020.63 1020.61 1020.59 1020.57 1020.55 1020.54 1020.52 1020.47 1020.38 1020.22 1019.97 1019.62 1019.16 1018.61 1017.99 1017.33 1016.68 1016.08 1015.55 1015.12 1014.81 1014.60 1014.48 1014.43 1014.41 1014.40
1020.21 1020.30 1020.41 1020.53 1020.66 1020.78 1020.88 1020.95 1020.97 1020.96 1020.91 1020.84 1020.75 1020.66 1020.57 1020.49 1020.42 1020.35 1020.28 1020.21 1020.14 1020.07 1020.01 1019.94 1019.85 1019.73 1019.57 1019.33 1019.01 1018.59 1018.08 1017.50 1016.86 1016.20 1015.56 1014.97 1014.46 1014.04 1013.74 1013.53 1013.41 1013.34 1013.32
1020.41 1020.50 1020.59 1020.70 1020.81 1020.92 1021.01 1021.07 1021.08 1021.04 1020.96 1020.85 1020.72 1020.58 1020.45 1020.32 1020.20 1020.08 1019.96 1019.83 1019.70 1019.57 1019.43 1019.30 1019.15 1018.99 1018.81 1018.58 1018.29 1017.93 1017.48 1016.96 1016.37 1015.74 1015.09 1014.47 1013.89 1013.39 1012.98 1012.67 1012.46 1012.34 1012.28
Thickness
5725 5721 5715 5712 5709 5706 5704 5702 5700 5698 5697 5695 5694 5693 5692 5690 5689 5689 5688 5687 5687 5687 5687 5687 5687 5687 5687 5688 5688 5689 5689 5690 5691 5692 5693 5695 5696 5697 5697 5698 5700 5701 5701
5728 5721 5714 5711 5707 5704 5702 5699 5697 5695 5693 5691 5690 5689 5687 5686 5685 5684 5683 5683 5682 5682 5682 5682 5681 5681 5681 5681 5682 5682 5682 5683 5684 5685 5686 5688 5689 5690 5691 5691 5693 5694 5695
5725 5720 5714 5709 5705 5702 5699 5697 5694 5692 5690 5688 5686 5685 5683 5682 5680 5679 5678 5677 5677 5677 5676 5676 5676 5675 5675 5675 5675 5675 5676 5676 5677 5679 5681 5682 5683 5684 5684 5685 5686 5687 5688
5723 5718 5714 5708 5704 5700 5697 5694 5691 5689 5686 5684 5682 5681 5679 5678 5676 5675 5674 5673 5672 5671 5671 5670 5670 5670 5669 5669 5669 5669 5669 5670 5671 5673 5676 5676 5677 5677 5678 5678 5679 5680 5681
5720 5717 5713 5706 5702 5699 5695 5692 5689 5686 5683 5681 5679 5677 5676 5674 5673 5671 5670 5668 5667 5667 5666 5665 5665 5665 5664 5664 5664 5664 5664 5664 5665 5668 5669 5669 5670 5671 5671 5672 5672 5673 5674
5719 5715 5711 5705 5701 5697 5693 5690 5686 5683 5681 5678 5676 5674 5672 5671 5669 5667 5665 5664 5663 5662 5661 5661 5660 5660 5659 5659 5659 5658 5658 5658 5661 5662 5662 5663 5664 5664 5665 5665 5666 5666 5667
5718 5713 5709 5703 5699 5695 5691 5688 5684 5681 5678 5676 5673 5671 5669 5667 5665 5663 5661 5660 5659 5658 5657 5656 5656 5655 5655 5655 5654 5653 5653 5653 5655 5656 5656 5657 5657 5658 5659 5659 5659 5660 5660
5715 5711 5707 5700 5696 5693 5689 5685 5682 5679 5676 5673 5670 5668 5666 5664 5662 5660 5658 5656 5655 5654 5653 5652 5651 5651 5650 5650 5649 5648 5648 5648 5649 5650 5651 5651 5651 5652 5652 5653 5653 5653 5654
5712 5708 5704 5699 5694 5690 5687 5683 5679 5676 5673 5670 5668 5666 5663 5661 5659 5657 5655 5653 5651 5650 5649 5648 5647 5646 5646 5645 5645 5644 5643 5643 5645 5645 5645 5645 5645 5647 5647 5647 5647 5647 5648
5708 5705 5702 5699 5694 5689 5685 5680 5677 5673 5670 5668 5665 5662 5660 5658 5656 5654 5652 5650 5648 5646 5645 5644 5643 5642 5641 5641 5640 5639 5639 5639 5641 5641 5641 5641 5640 5642 5642 5642 5642 5642 5642
5705 5703 5700 5697 5693 5688 5684 5679 5674 5670 5667 5664 5662 5659 5656 5655 5654 5651 5649 5647 5645 5643 5642 5640 5639 5638 5637 5636 5636 5635 5635 5637 5637 5637 5636 5635 5635 5636 5637 5638 5637 5637 5637
5704 5701 5698 5694 5690 5685 5681 5676 5672 5668 5665 5661 5659 5656 5654 5652 5650 5648 5644 5642 5641 5639 5638 5637 5636 5634 5633 5634 5633 5631 5633 5633 5633 5633 5633 5631 5630 5631 5632 5633 5633 5632 5632
5705 5699 5696 5691 5686 5682 5678 5674 5670 5666 5662 5659 5656 5653 5650 5647 5645 5642 5641 5639 5637 5635 5635 5633 5632 5632 5631 5630 5629 5629 5629 5628 5629 5629 5629 5627 5626 5626 5627 5628 5628 5628 5628
5702 5698 5693 5688 5683 5679 5675 5671 5667 5663 5659 5656 5652 5649 5646 5643 5640 5639 5637 5636 5634 5632 5631 5630 5629 5629 5627 5626 5625 5625 5625 5624 5624 5624 5624 5623 5621 5621 5622 5623 5623 5623 5623
5700 5696 5691 5686 5682 5676 5672 5668 5664 5661 5657 5653 5648 5645 5642 5639 5637 5635 5633 5631 5629 5628 5626 5625 5625 5625 5623 5622 5621 5620 5620 5620 5620 5620 5620 5618 5617 5616 5616 5616 5617 5617 5617
5698 5694 5690 5685 5680 5674 5670 5666 5662 5658 5653 5649 5645 5642 5638 5635 5633 5630 5628 5626 5624 5623 5621 5620 5620 5619 5618 5617 5617 5616 5615 5615 5615 5615 5615 5614 5613 5612 5611 5611 5611 5611 5611
5697 5692 5687 5682 5677 5672 5667 5662 5658 5654 5650 5646 5642 5638 5634 5631 5629 5626 5624 5623 5620 5618 5616 5615 5614 5612 5611 5611 5611 5610 5610 5610 5610 5610 5609 5609 5609 5608 5606 5605 5604 5604 5603
5693 5688 5683 5677 5673 5668 5663 5658 5654 5649 5645 5642 5638 5635 5631 5627 5624 5622 5620 5618 5615 5613 5610 5608 5607 5606 5606 5605 5605 5606 5605 5604 5603 5604 5603 5603 5602 5602 5601 5600 5598 5597 5597
5687 5683 5677 5672 5668 5663 5658 5653 5649 5644 5640 5637 5634 5630 5627 5623 5619 5617 5615 5613 5610 5607 5603 5601 5601 5600 5600 5600 5600 5599 5599 5598 5598 5598 5598 5598 5596 5595 5594 5594 5592 5591 5591
5679 5675 5671 5666 5661 5657 5651 5647 5642 5638 5634 5631 5629 5626 5622 5619 5615 5611 5609 5607 5604 5601 5598 5596 5595 5593 5592 5590 5591 5593 5594 5594 5594 5594 5594 5592 5592 5590 5589 5587 5586 5587 5585
5670 5667 5663 5659 5654 5649 5645 5640 5636 5633 5630 5626 5623 5620 5617 5614 5610 5606 5604 5602 5599 5596 5594 5592 5590 5587 5585 5582 5581 5586 5593 5595 5595 5593 5589 5587 5587 5585 5583 5581 5579 5578 5579
5661 5658 5655 5651 5646 5641 5637 5633 5629 5626 5623 5621 5617 5614 5611 5608 5605 5601 5598 5596 5594 5591 5588 5585 5582 5580 5577 5573 5571 5575 5586 5595 5597 5590 5584 5581 5579 5577 5575 5573 5571 5570 5569
5651 5648 5645 5641 5637 5632 5628 5623 5619 5617 5615 5613 5611 5608 5605 5602 5599 5596 5593 5591 5588 5585 5583 5580 5576 5572 5570 5568 5562 5559 5563 5578 5583 5585 5579 5574 5570 5568 5566 5564 5562 5560 5558
5640 5637 5635 5631 5628 5623 5619 5617 5615 5612 5611 5609 5605 5602 5599 5596 5593 5590 5587 5584 5582 5580 5577 5574 5569 5565 5561 5559 5556 5551 5547 5548 5548 5563 5570 5565 5561 5559 5556 5554 5551 5549 5546
5631 5628 5626 5622 5619 5614 5611 5608 5607 5605 5603 5600 5597 5595 5593 5591 5587 5583 5580 5578 5575 5572 5570 5566 5562 5557 5553 5549 5546 5543 5539 5534 5530 5527 5544 5550 5551 5550 5547 5543 5540 5537 5535
5622 5619 5617 5614 5609 5605 5603 5601 5599 5597 5595 5593 5591 5589 5587 5584 5581 5577 5573 5570 5567 5564 5561 5557 5553 5549 5544 5540 5535 5530 5527 5524 5524 5520 5525 5531 5534 5536 5533 5531 5528 5524 5521